TimeCST,TemperatureF,Dew PointF,Humidity,Sea Level PressureIn,VisibilityMPH,Wind Direction,Wind SpeedMPH,Gust SpeedMPH,PrecipitationIn,Events,Conditions,WindDirDegrees,DateUTC
12:53 AM,35.1,30.0,82,30.27,7.0,East,5.8,-,0.01,Rain,Light Rain,80,2012-12-31 06:53:00
1:53 AM,35.1,30.9,85,30.26,8.0,East,5.8,-,0.03,Rain,Light Rain,90,2012-12-31 07:53:00
2:53 AM,35.1,30.9,85,30.25,8.0,ENE,6.9,-,0.00,Rain,Light Rain,60,2012-12-31 08:53:00
3:53 AM,35.1,30.9,85,30.24,7.0,ENE,5.8,-,0.02,Rain,Light Rain,60,2012-12-31 09:53:00
4:53 AM,35.1,32.0,89,30.22,6.0,ENE,6.9,-,0.01,,Overcast,70,2012-12-31 10:53:00
5:53 AM,35.1,32.0,89,30.22,4.0,ENE,6.9,-,0.02,Rain,Light Rain,70,2012-12-31 11:53:00
6:53 AM,35.1,33.1,92,30.19,4.0,East,9.2,-,0.05,Rain,Light Rain,80,2012-12-31 12:53:00
7:53 AM,36.0,33.1,89,30.17,5.0,East,9.2,-,0.07,Rain,Rain,80,2012-12-31 13:53:00
8:53 AM,36.0,35.1,97,30.16,4.0,East,9.2,-,0.08,Rain,Light Rain,90,2012-12-31 14:53:00
9:24 AM,35.6,35.6,100,30.12,4.0,East,9.2,-,0.01,Rain,Light Rain,90,2012-12-31 15:24:00
9:53 AM,37.0,36.0,96,30.15,4.0,East,8.1,-,0.02,Rain,Light Rain,90,2012-12-31 15:53:00
10:09 AM,37.4,35.6,93,30.15,6.0,East,8.1,-,0.00,Rain,Light Rain,80,2012-12-31 16:09:00
10:53 AM,37.0,36.0,96,30.15,4.0,NE,10.4,-,0.02,Rain,Light Rain,50,2012-12-31 16:53:00
11:53 AM,37.9,36.0,93,30.09,4.0,East,10.4,-,0.01,Rain,Light Rain,80,2012-12-31 17:53:00
12:53 PM,37.9,37.0,97,30.07,2.0,ENE,8.1,-,0.01,Rain,Light Rain,60,2012-12-31 18:53:00
1:41 PM,37.4,37.4,100,30.05,3.0,NNE,5.8,-,0.06,Rain,Rain,30,2012-12-31 19:41:00
1:51 PM,37.4,37.4,100,30.05,2.5,NNE,5.8,-,0.06,Rain,Light Rain,20,2012-12-31 19:51:00
1:53 PM,37.9,37.9,100,30.06,2.5,NNE,8.1,-,0.07,Rain,Light Rain,20,2012-12-31 19:53:00
2:31 PM,37.4,37.4,100,30.04,1.8,East,8.1,-,0.06,Rain,Rain,90,2012-12-31 20:31:00
2:53 PM,37.9,37.0,97,30.04,1.8,East,5.8,-,0.13,Rain,Light Rain,100,2012-12-31 20:53:00
3:23 PM,37.4,37.4,100,30.03,2.0,East,4.6,-,0.03,Rain,Light Rain,100,2012-12-31 21:23:00
3:40 PM,37.4,37.4,100,30.03,3.0,East,8.1,-,0.03,,Overcast,100,2012-12-31 21:40:00
3:53 PM,37.9,36.0,93,30.04,3.0,East,5.8,-,0.03,,Overcast,100,2012-12-31 21:53:00
4:30 PM,37.4,35.6,93,30.03,3.0,East,3.5,-,N/A,,Overcast,90,2012-12-31 22:30:00
4:53 PM,37.9,36.0,93,30.03,4.0,East,5.8,-,N/A,,Overcast,80,2012-12-31 22:53:00
5:53 PM,37.9,36.0,93,30.03,5.0,ENE,5.8,-,N/A,,Overcast,70,2012-12-31 23:53:00
6:53 PM,37.9,36.0,93,30.04,6.0,ENE,6.9,-,N/A,,Overcast,70,2013-01-01 00:53:00
7:00 PM,37.4,35.6,93,30.03,6.0,ENE,6.9,-,N/A,,Overcast,70,2013-01-01 01:00:00
7:53 PM,37.9,36.0,93,30.04,5.0,ENE,5.8,-,N/A,,Overcast,70,2013-01-01 01:53:00
8:53 PM,39.0,36.0,89,30.06,5.0,ENE,3.5,-,N/A,,Overcast,60,2013-01-01 02:53:00
9:12 PM,39.2,35.6,87,30.05,5.0,NE,3.5,-,N/A,,Overcast,50,2013-01-01 03:12:00
9:53 PM,39.2,35.6,87,30.06,5.0,Calm,Calm,-,N/A,,Overcast,0,2013-01-01 03:53:00
10:44 PM,39.2,35.6,87,30.07,4.0,Calm,Calm,-,N/A,,Overcast,0,2013-01-01 04:44:00
10:53 PM,39.0,36.0,89,30.08,4.0,Calm,Calm,-,N/A,,Overcast,0,2013-01-01 04:53:00
11:49 PM,39.2,35.6,87,30.07,4.0,Calm,Calm,-,N/A,,Overcast,0,2013-01-01 05:49:00
11:53 PM,39.0,36.0,89,30.08,4.0,Calm,Calm,-,N/A,,Overcast,0,2013-01-01 05:53:00